Regional Weather Roundup
Issued by NWS

Home | Current Version | Previous Version | Graphics & Text | Print | Product List | Glossary On
Versions: 1 2 3 4 5 6 7 8 9 10 11 12 13 14 15 16 17 18 19 20 21 22 23 24 25 26 27 28
000
ASUS45 KBOI 170410
RWRID

IDAHO REGIONAL WEATHER ROUNDUP
NATIONAL WEATHER SERVICE BOISE ID
900 PM MST MON JAN 16 2017

NOTE: "FAIR" INDICATES FEW OR NO CLOUDS BELOW 12000 FEET
WITH NO SIGNIFICANT WEATHER AND/OR OBSTRUCTIONS TO VISIBILITY

IDZ012-014-170500-
SOUTHWEST IDAHO


CITY           SKY/WX    TMP DP  RH WIND       PRES   REMARKS
BOISE          CLEAR      4   0  83 NW3       30.42S FOG
CALDWELL       CLEAR      0  -4  83 CALM      30.48S
MOUNTAIN HOME  CLEAR      2   0  91 CALM      30.40F
$$

IDZ016-017-170500-
SOUTHCENTRAL IDAHO


CITY           SKY/WX    TMP DP  RH WIND       PRES   REMARKS
BURLEY         CLEAR      9   4  80 NE6       30.31F WCI  -1
JEROME         CLEAR      5   1  83 NE12      30.33S WCI -11
TWIN FALLS     CLEAR      9   7  92 CALM      30.32S
$$

IDZ019>023-170500-
SOUTHEAST IDAHO


CITY           SKY/WX    TMP DP  RH WIND       PRES   REMARKS
IDAHO FALLS    CLOUDY    -4  -7  87 N6        30.32S WCI -16
POCATELLO      CLOUDY    -2  -5  87 CALM      30.34R
REXBURG        CLOUDY    -3  -5  90 N5        30.31S FOG     WCI -13
$$

IDZ006-010-011-018-031-032-170500-
CENTRAL IDAHO MOUNTAINS


CITY           SKY/WX    TMP DP  RH WIND       PRES   REMARKS
MCCALL         PTCLDY     5   1  83 CALM      30.20S
HAILEY         CLEAR      7   1  78 N3        30.24F
STANLEY          N/A     -6  -9  86 SE3       30.22F
SALMON         CLOUDY   -15 -18  84 CALM      30.45S
CHALLIS        CLEAR    -17 -21  82 CALM      30.34F
$$

IDZ002-004-006-007-026-170500-
NORTHERN IDAHO


CITY           SKY/WX    TMP DP  RH WIND       PRES   REMARKS
LEWISTON       PTCLDY     9   6  88 W5        30.31R WCI   1
LOWELL           N/A     17  13  84 NW3       30.33F
COEUR D`ALENE  PTCLDY    14  12  92 E8        30.23R WCI   3
MULLAN PASS    CLEAR     23  16  74 S7        30.08F WCI  15
$$




USA.gov is the U.S. government's official web portal to all federal, state and local government web resources and services.